[TLELIST] Archives

 

[list_settings.list_name] Current TLEs

November 30th 2013 PDT

HST 1 20580U 90037B 13334.17728598 .00002549 00000-0 16670-3 0 3846 2 20580 028.4700 264.2292 0003188 324.4279 171.6356 15.04271282 94718 ISS (ZARYA) 1 25544U 98067A 13334.44562944 .00009794 00000-0 17538-3 0 1338 2 25544 051.6529 004.5966 0001322 092.8204 345.6621 15.50641618860494 CXO 1 25867U 99040B 13337.18148733 -.00000576 00000-0 00000+0 0 9811 2 25867 076.3010 329.9891 8385252 276.1944 359.6325 00.37801067 11179 ____________________________________________________________________ These 2-Line ...Continue Reading

[list_settings.list_name] Current TLEs

November 29th 2013 PDT

HST 1 20580U 90037B 13332.31919740 .00002429 00000-0 15833-3 0 3837 2 20580 028.4711 276.4265 0003059 304.2265 189.7560 15.04263451 94438 ISS (ZARYA) 1 25544U 98067A 13333.28525701 .00008331 00000-0 15059-3 0 1252 2 25544 051.6511 010.3503 0001332 107.8888 328.8421 15.50604251860317 CXO 1 25867U 99040B 13331.93539516 .00000000 00000-0 10000-3 0 9671 2 25867 076.2680 330.2964 8385390 276.2455 005.4857 00.37809139 11150 ____________________________________________________________________ These 2-Line ...Continue Reading

[list_settings.list_name] Current TLEs

November 28th 2013 PDT

HST 1 20580U 90037B 13331.18877549 .00002637 00000-0 17289-3 0 3828 2 20580 028.4712 283.8438 0003008 291.5661 188.7141 15.04259931 94268 ISS (ZARYA) 1 25544U 98067A 13332.45788382 .00009833 00000-0 17636-3 0 1189 2 25544 051.6511 014.4525 0001229 099.6768 035.4817 15.50591395860185 CXO 1 25867U 99040B 13331.93539516 .00000000 00000-0 10000-3 0 9671 2 25867 076.2680 330.2964 8385390 276.2455 005.4857 00.37809139 11150 ____________________________________________________________________ These 2-Line ...Continue Reading

[list_settings.list_name] Current TLEs

November 27th 2013 PDT

HST 1 20580U 90037B 13331.18877549 .00002637 00000-0 17289-3 0 3828 2 20580 028.4712 283.8438 0003008 291.5661 188.7141 15.04259931 94268 ISS (ZARYA) 1 25544U 98067A 13331.42496816 .00009870 00000-0 17713-3 0 1102 2 25544 051.6514 019.5727 0001126 091.7420 033.7778 15.50570765860020 CXO 1 25867U 99040B 13331.89355216 -.00000557 00000-0 00000+0 0 9795 2 25867 076.2758 330.3214 8388940 276.1917 000.0127 00.37802716 11156 ____________________________________________________________________ These 2-Line ...Continue Reading

[list_settings.list_name] Current TLEs

November 26th 2013 PDT

HST 1 20580U 90037B 13329.33660251 .00003325 00000-0 22125-3 0 3811 2 20580 028.4713 295.9971 0002940 271.5943 238.7804 15.04250896 93981 ISS (ZARYA) 1 25544U 98067A 13330.51436007 .00000814 00000-0 21834-4 0 1049 2 25544 051.6511 024.0876 0001099 098.9129 340.2078 15.50539847859884 CXO 1 25867U 99040B 13331.89355216 -.00000557 00000-0 00000+0 0 9795 2 25867 076.2758 330.3214 8388940 276.1917 000.0127 00.37802716 11156 ____________________________________________________________________ These 2-Line ...Continue Reading

[list_settings.list_name] Current TLEs

November 25th 2013 PDT

HST 1 20580U 90037B 13328.20022976 .00003854 00000-0 25840-3 0 3805 2 20580 028.4713 303.4526 0002960 255.4008 209.0350 15.04245392 93811 ISS (ZARYA) 1 25544U 98067A 13329.42466128 .00017686 00000-0 31123-3 0 971 2 25544 051.6510 029.4863 0001151 103.9334 008.5506 15.50538163859714 CXO 1 25867U 99040B 13331.89355216 -.00000557 00000-0 00000+0 0 9795 2 25867 076.2758 330.3214 8388940 276.1917 000.0127 00.37802716 11156 ____________________________________________________________________ These 2-Line ...Continue Reading

[list_settings.list_name] Current TLEs

November 24th 2013 PDT

HST 1 20580U 90037B 13328.20022976 .00003854 00000-0 25840-3 0 3805 2 20580 028.4713 303.4526 0002960 255.4008 209.0350 15.04245392 93811 ISS (ZARYA) 1 25544U 98067A 13328.47259259 .00017611 00000-0 31032-3 0 900 2 25544 051.6507 034.2048 0001144 105.6434 089.0030 15.50503497859562 CXO 1 25867U 99040B 13329.24875216 -.00000489 00000-0 00000+0 0 9781 2 25867 076.2631 330.4698 8389315 276.2217 359.9757 00.37798923 11142 ____________________________________________________________________ These 2-Line ...Continue Reading

[list_settings.list_name] Current TLEs

November 23rd 2013 PDT

HST 1 20580U 90037B 13326.41290074 .00003997 00000-0 26852-3 0 3792 2 20580 028.4716 315.1805 0002873 237.6204 248.8513 15.04234576 93541 ISS (ZARYA) 1 25544U 98067A 13327.43717593 .00017314 00000-0 30565-3 0 859 2 25544 051.6509 039.3377 0001136 107.1644 064.2293 15.50464898859406 CXO 1 25867U 99040B 13329.24875216 -.00000489 00000-0 00000+0 0 9781 2 25867 076.2631 330.4698 8389315 276.2217 359.9757 00.37798923 11142 ____________________________________________________________________ These 2-Line ...Continue Reading

[list_settings.list_name] Current TLEs

November 22nd 2013 PDT

HST 1 20580U 90037B 13325.35559810 .00004013 00000-0 26967-3 0 3786 2 20580 028.4718 322.1197 0002980 222.9019 286.7263 15.04228535 93388 ISS (ZARYA) 1 25544U 98067A 13326.45996880 .00017436 00000-0 30811-3 0 790 2 25544 051.6510 044.1805 0001147 104.0460 009.3574 15.50430739859254 CXO 1 25867U 99040B 13329.24875216 -.00000489 00000-0 00000+0 0 9781 2 25867 076.2631 330.4698 8389315 276.2217 359.9757 00.37798923 11142 ____________________________________________________________________ These 2-Line ...Continue Reading

[list_settings.list_name] Current TLEs

November 21st 2013 PDT

HST 1 20580U 90037B 13324.21539543 .00004393 00000-0 29638-3 0 3779 2 20580 028.4719 329.6007 0002980 210.3541 232.6504 15.04222020 93204 ISS (ZARYA) 1 25544U 98067A 13325.42640256 .00001386 00000-0 31823-4 0 724 2 25544 051.6488 049.3082 0000847 087.1785 013.5694 15.50378933859098 CXO 1 25867U 99040B 13326.60315688 -.00000499 00000-0 00000+0 0 9770 2 25867 076.2480 330.5946 8391774 276.2684 359.7855 00.37797022 11136 ____________________________________________________________________ These 2-Line ...Continue Reading
  • This mailing list is a public mailing list - anyone may join or leave, at any time.
  • This mailing list is announce-only.

International Space Station (ISS) / Hubble Space Telescope (HST) / Chandra X-Ray Observatory Orbital Data via EMAIL

Privacy Policy:

Private list